Regional Weather Roundup
Issued by NWS

Home | Current Version | Previous Version | Text Only | Print | Product List | Glossary Off
Versions: 1 2 3 4 5 6 7 8 9 10 11 12 13 14 15 16 17 18 19 20 21 22 23 24 25 26 27 28

000
ASUS45 KBOI 200110
RWRID

IDAHO REGIONAL WEATHER ROUNDUP
NATIONAL WEATHER SERVICE BOISE ID
700 PM MDT THU APR 19 2018

NOTE: "FAIR" INDICATES FEW OR NO CLOUDS BELOW 12000 FEET
WITH NO SIGNIFICANT WEATHER AND/OR OBSTRUCTIONS TO VISIBILITY

IDZ012-014-200200-
SOUTHWEST IDAHO


CITY           SKY/WX    TMP DP  RH WIND       PRES   REMARKS
BOISE          PTSUNNY   66  27  23 NW25G35   29.88S
CALDWELL       PTSUNNY   68  28  22 NW21G26   29.90S
MOUNTAIN HOME  CLOUDY    64  28  25 NW15      29.90R
$$

IDZ016-017-200200-
SOUTHCENTRAL IDAHO


CITY           SKY/WX    TMP DP  RH WIND       PRES   REMARKS
BURLEY         CLOUDY    55  31  39 W14G24    29.85R
JEROME         CLOUDY    58  31  35 W16       29.88R
TWIN FALLS     CLOUDY    56  32  40 W10       29.88S
$$

IDZ019>023-200200-
SOUTHEAST IDAHO


CITY           SKY/WX    TMP DP  RH WIND       PRES   REMARKS
IDAHO FALLS    PTSUNNY   61  19  19 N14       29.85F
POCATELLO      CLOUDY    62  20  19 N14       29.83R
REXBURG        PTSUNNY   61  20  20 N14G23    29.86F
$$

IDZ006-010-011-018-031-032-200200-
CENTRAL IDAHO MOUNTAINS


CITY           SKY/WX    TMP DP  RH WIND       PRES   REMARKS
MCCALL         SUNNY     53  25  33 NW16G23   30.00R
HAILEY         PTSUNNY   55  28  35 NW12G18   29.93R
STANLEY          N/A     49  20  31 N3        29.99R
SALMON         CLOUDY    60  24  25 N16       29.95R
CHALLIS        CLOUDY    57  23  26 NE13      29.95R
$$

IDZ002-004-006-007-026-200200-
NORTHERN IDAHO


CITY           SKY/WX    TMP DP  RH WIND       PRES   REMARKS
LEWISTON       SUNNY     65  31  28 NW12      30.09S
LOWELL           N/A     61  40  45 CALM      30.03R
COEUR D`ALENE  SUNNY     62  28  27 W14       30.09R
MULLAN PASS    SUNNY     42  19  39 NW5       30.10S
$$




USA.gov is the U.S. government's official web portal to all federal, state and local government web resources and services.